Weather History for Pawtucket, RI

Change the Weather History Date:

Tuesday, November 5, 2013

  Actual Average Record
Temperature  
Mean Temperature 36 °F -  
Max Temperature 50 °F 51 °F 73 °F (2005)
Min Temperature 21 °F 34 °F 21 °F (2013)
Degree Days  
Heating Degree Days 30    
Moisture  
Dew Point 23 °F    
Average Humidity 60    
Maximum Humidity 80    
Minimum Humidity 37    
Precipitation  
Precipitation 0.00 in - - ()
Sea Level Pressure  
Sea Level Pressure 30.63 in    
Wind  
Wind Speed 2 mph (East)    
Max Wind Speed 7 mph    
Max Gust Speed -    
Visibility 10 miles    
Events      
Averages and records for this station are not official NWS values.
T = Trace of Precipitation, MM = Missing Value Source: NWS Daily Summary

Daily Weather History Graph

Daily Weather History Graph

Search for Another Location

Airport:

Trip Planner

Search our weather history database for the weather conditions in past years. The results will help you decide how hot, cold, wet, or windy it might be!

Date:

Astronomy

Nov. 05, 2013 Rise Set
Actual Time 6:23 AM EST 4:34 PM EST
Civil Twilight 5:54 AM EST 5:04 PM EST
Nautical Twilight 5:21 AM EST 5:37 PM EST
Astronomical Twilight 4:48 AM EST 6:09 PM EST
Moon 8:36 AM EST (11/5) 6:32 PM EST (11/5)
Length of Visible Light 11h 09m
Length of Day
10h 11m
Waxing Crescent, 6% of the Moon is Illuminated
Nov 5
Waxing Crescent
Nov 10
First Quarter
Nov 17
Full
Nov 25
Last Quarter
Dec 2
New

Hourly Weather History & Observations

Time (EST) Temp. Windchill Dew Point Humidity Pressure Visibility Wind Dir Wind Speed Gust Speed Precip Events Conditions
12:15 AM 24.8 °F - 15.8 °F 69% 30.69 in 10.0 mi Calm Calm - N/A   Clear
12:35 AM 24.8 °F 20.5 °F 17.6 °F 74% 30.69 in 10.0 mi North 3.5 mph - N/A   Clear
12:55 AM 23.0 °F - 15.8 °F 74% 30.69 in 10.0 mi Calm Calm - N/A   Clear
1:15 AM 24.8 °F - 17.6 °F 74% 30.68 in 10.0 mi Calm Calm - N/A   Clear
1:35 AM 24.8 °F - 17.6 °F 74% 30.69 in 10.0 mi Calm Calm - N/A   Clear
1:55 AM 21.2 °F - 15.8 °F 80% 30.69 in 10.0 mi Calm Calm - N/A   Clear
2:15 AM 23.0 °F - 15.8 °F 74% 30.69 in 10.0 mi Calm Calm - N/A   Clear
2:35 AM 23.0 °F - 17.6 °F 80% 30.70 in 10.0 mi Calm Calm - N/A   Clear
2:55 AM 24.8 °F - 15.8 °F 69% 30.69 in 10.0 mi Calm Calm - N/A   Clear
3:15 AM 24.8 °F 19.1 °F 17.6 °F 74% 30.68 in 10.0 mi NNE 4.6 mph - N/A   Clear
3:35 AM 24.8 °F - 17.6 °F 74% 30.68 in 10.0 mi Calm Calm - N/A   Clear
3:55 AM 26.6 °F 22.6 °F 17.6 °F 69% 30.67 in 10.0 mi NNE 3.5 mph - N/A   Clear
4:15 AM 26.6 °F - 19.4 °F 74% 30.67 in 10.0 mi Calm Calm - N/A   Clear
4:35 AM 26.6 °F 22.6 °F 19.4 °F 74% 30.67 in 10.0 mi NNE 3.5 mph - N/A   Clear
4:55 AM 26.6 °F 22.6 °F 19.4 °F 74% 30.68 in 10.0 mi NNE 3.5 mph - N/A   Clear
5:15 AM 26.6 °F 22.6 °F 19.4 °F 74% 30.69 in 10.0 mi NNE 3.5 mph - N/A   Clear
5:35 AM 26.6 °F 22.6 °F 19.4 °F 74% 30.69 in 10.0 mi North 3.5 mph - N/A   Clear
5:55 AM 26.6 °F 22.6 °F 17.6 °F 69% 30.69 in 10.0 mi North 3.5 mph - N/A   Clear
6:15 AM 26.6 °F 19.1 °F 17.6 °F 69% 30.68 in 10.0 mi NNE 6.9 mph - N/A   Clear
6:35 AM 26.6 °F 21.2 °F 19.4 °F 74% 30.68 in 10.0 mi NNE 4.6 mph - N/A   Clear
6:55 AM 26.6 °F - 19.4 °F 74% 30.69 in 10.0 mi Calm Calm - N/A   Clear
7:15 AM 28.4 °F 24.6 °F 19.4 °F 69% 30.69 in 10.0 mi NNE 3.5 mph - N/A   Clear
7:35 AM 30.2 °F - 21.2 °F 69% 30.70 in 10.0 mi Calm Calm - N/A   Clear
7:55 AM 33.8 °F 30.8 °F 21.2 °F 60% 30.70 in 10.0 mi NNE 3.5 mph - N/A   Clear
8:15 AM 35.6 °F 30.7 °F 24.8 °F 65% 30.70 in 10.0 mi NNE 5.8 mph - N/A   Clear
8:35 AM 37.4 °F 34.9 °F 24.8 °F 60% 30.71 in 10.0 mi NNE 3.5 mph - N/A   Clear
8:55 AM 39.2 °F 37.0 °F 24.8 °F 56% 30.70 in 10.0 mi North 3.5 mph - N/A   Clear
9:15 AM 41.0 °F 39.0 °F 24.8 °F 53% 30.70 in 10.0 mi North 3.5 mph - N/A   Clear
9:35 AM 42.8 °F 40.1 °F 24.8 °F 49% 30.70 in 10.0 mi East 4.6 mph - N/A   Clear
9:55 AM 42.8 °F - 24.8 °F 49% 30.69 in 10.0 mi Calm Calm - N/A   Clear
10:15 AM 42.8 °F 40.1 °F 24.8 °F 49% 30.68 in 10.0 mi ESE 4.6 mph - N/A   Clear
10:35 AM 44.6 °F 43.1 °F 24.8 °F 46% 30.68 in 10.0 mi ESE 3.5 mph - N/A   Clear
10:55 AM 44.6 °F - 24.8 °F 46% 30.68 in 10.0 mi Calm Calm - N/A   Clear
11:15 AM 46.4 °F 44.3 °F 24.8 °F 43% 30.67 in 10.0 mi East 4.6 mph - N/A   Clear
11:35 AM 46.4 °F 44.3 °F 24.8 °F 43% 30.66 in 10.0 mi SW 4.6 mph - N/A   Clear
11:55 AM 46.4 °F 45.2 °F 24.8 °F 43% 30.66 in 10.0 mi SSW 3.5 mph - N/A   Clear
12:15 PM 46.4 °F 42.9 °F 24.8 °F 43% 30.65 in 10.0 mi SSW 6.9 mph - N/A   Clear
12:35 PM 46.4 °F - 24.8 °F 43% 30.64 in 10.0 mi Calm Calm - N/A   Clear
12:55 PM 48.2 °F - 24.8 °F 40% 30.63 in 10.0 mi WSW 3.5 mph - N/A   Clear
1:15 PM 48.2 °F - 24.8 °F 40% 30.62 in 10.0 mi East 4.6 mph - N/A   Clear
1:35 PM 48.2 °F - 24.8 °F 40% 30.61 in 10.0 mi Calm Calm - N/A   Clear
1:55 PM 50.0 °F - 24.8 °F 37% 30.61 in 10.0 mi Calm Calm - N/A   Clear
2:15 PM 48.2 °F - 24.8 °F 40% 30.60 in 10.0 mi Calm Calm - N/A   Clear
2:35 PM 48.2 °F - 24.8 °F 40% 30.60 in 10.0 mi SSE 4.6 mph - N/A   Clear
2:55 PM 48.2 °F - 24.8 °F 40% 30.59 in 10.0 mi SE 6.9 mph - N/A   Clear
3:15 PM 48.2 °F - 24.8 °F 40% 30.59 in 10.0 mi South 5.8 mph - N/A   Clear
3:35 PM 46.4 °F 44.3 °F 24.8 °F 43% 30.59 in 10.0 mi SSE 4.6 mph - N/A   Clear
3:55 PM 46.4 °F 45.2 °F 23.0 °F 40% 30.58 in 10.0 mi South 3.5 mph - N/A   Clear
4:15 PM 44.6 °F - 24.8 °F 46% 30.58 in 10.0 mi Calm Calm - N/A   Clear
4:35 PM 44.6 °F - 24.8 °F 46% 30.58 in 10.0 mi Calm Calm - N/A   Clear
4:55 PM 42.8 °F 41.1 °F 24.8 °F 49% 30.57 in 10.0 mi South 3.5 mph - N/A   Clear
5:15 PM 42.8 °F 41.1 °F 26.6 °F 53% 30.57 in 10.0 mi South 3.5 mph - N/A   Clear
5:35 PM 41.0 °F 38.0 °F 26.6 °F 57% 30.58 in 10.0 mi South 4.6 mph - N/A   Clear
5:55 PM 41.0 °F - 26.6 °F 57% 30.58 in 10.0 mi Calm Calm - N/A   Clear
6:15 PM 41.0 °F - 26.6 °F 57% 30.59 in 10.0 mi Calm Calm - N/A   Clear
6:35 PM 39.2 °F 35.9 °F 26.6 °F 61% 30.58 in 10.0 mi South 4.6 mph - N/A   Clear
6:55 PM 39.2 °F 37.0 °F 26.6 °F 61% 30.58 in 10.0 mi SSW 3.5 mph - N/A   Clear
7:15 PM 39.2 °F - 26.6 °F 61% 30.58 in 10.0 mi Calm Calm - N/A   Clear
7:35 PM 39.2 °F - 28.4 °F 65% 30.57 in 10.0 mi Calm Calm - N/A   Clear
7:55 PM 37.4 °F - 26.6 °F 65% 30.58 in 10.0 mi Calm Calm - N/A   Clear
8:15 PM 37.4 °F - 26.6 °F 65% 30.57 in 10.0 mi Calm Calm - N/A   Clear
8:35 PM 39.2 °F - 28.4 °F 65% 30.57 in 10.0 mi Calm Calm - N/A   Clear
8:55 PM 37.4 °F - 28.4 °F 70% 30.57 in 10.0 mi Calm Calm - N/A   Clear
9:15 PM 37.4 °F - 28.4 °F 70% 30.56 in 10.0 mi Calm Calm - N/A   Clear
9:35 PM 37.4 °F - 28.4 °F 70% 30.56 in 10.0 mi Calm Calm - N/A   Clear
9:55 PM 37.4 °F - 28.4 °F 70% 30.56 in 10.0 mi Calm Calm - N/A   Clear
10:15 PM 37.4 °F - 28.4 °F 70% 30.55 in 10.0 mi Calm Calm - N/A   Clear
10:35 PM 37.4 °F - 28.4 °F 70% 30.54 in 10.0 mi Calm Calm - N/A   Clear
10:55 PM 37.4 °F - 28.4 °F 70% 30.53 in 10.0 mi Calm Calm - N/A   Clear
11:15 PM 37.4 °F - 28.4 °F 70% 30.53 in 10.0 mi Calm Calm - N/A   Clear
11:35 PM 37.4 °F - 28.4 °F 70% 30.54 in 10.0 mi Calm Calm - N/A   Clear
11:55 PM 37.4 °F 34.9 °F 28.4 °F 70% 30.53 in 10.0 mi SSW 3.5 mph - N/A   Clear